Location: *
(51.1248°S, 108.4023°W)
Time: 03:28:23
(UTC+00:00)

SJ-11-01 - Visible Passes

Search period start: 21 October 2021 00:00
Search period end: 31 October 2021 00:00
Orbit: 684 x 700 km, 97.9° (Epoch: 20 October)

Date Brightness Start Highest point End Pass type
(mag) Time Alt. Az. Time Alt. Az. Time Alt. Az.
21 Oct 4.3 02:34:46 10° SSE 02:39:33 73° ENE 02:44:16 10° N visible
21 Oct 7.1 04:13:16 10° SSW 04:16:37 19° WSW 04:19:57 10° WNW visible
22 Oct 5.2 03:14:31 10° S 03:19:10 52° WSW 03:23:44 10° NW visible
23 Oct 6.6 03:54:37 10° S 03:58:32 26° WSW 04:02:25 10° WNW visible
24 Oct 4.6 02:56:09 10° S 03:00:56 75° WSW 03:05:38 10° NNW visible
24 Oct 7.4 04:35:22 10° SSW 04:37:42 14° SW 04:40:01 10° W visible
25 Oct 6.1 03:36:06 10° S 03:40:24 35° WSW 03:44:41 10° NW visible
26 Oct 4.3 02:37:52 10° SSE 02:42:40 78° ENE 02:47:23 10° N visible
26 Oct 7.2 04:16:28 10° SSW 04:19:40 18° WSW 04:22:52 10° W visible
27 Oct 5.4 03:17:39 10° S 03:22:15 49° WSW 03:26:46 10° NW visible
28 Oct 6.8 03:57:47 10° S 04:01:36 24° WSW 04:05:22 10° WNW visible
29 Oct 4.7 02:59:16 10° S 03:04:01 69° WSW 03:08:42 10° NNW visible
29 Oct 7.5 04:38:40 10° SSW 04:40:44 13° SW 04:42:48 10° WSW visible
30 Oct 6.2 03:39:13 10° S 03:43:29 33° WSW 03:47:41 10° NW visible
